When you browse on this site, cookies collect data to enhance your experience and personalize the content and advertising you see.
Visit our Privacy Policy to learn more. By continuing to use the site, you agree to this use of cookies and data.
  • In Portugal
  • List of Countries
  • For 7 days
  • Water Temperature
  • Weather Map
  • Weather Widgets
  • user-avatar
    Login

    Hourly Weather Wiktoria

    Today, 1 June, Monday

    Time Temperature Precipitation Wind Pressure Humidity
    00:00 +9°C° 0.1 mm 3 mps 745 mmHg 90%
    01:00 +8°C° 0.1 mm 3 mps 744 mmHg 92%
    02:00 +8°C° 0 mm 3 mps 743 mmHg 91%
    03:00 +7°C° 0 mm 4 mps 743 mmHg 90%
    04:00 +7°C° 0 mm 4 mps 742 mmHg 90%
    05:00 +8°C° 2 mm 5 mps 742 mmHg 92%
    06:00 +8°C° 2 mm 6 mps 742 mmHg 93%
    07:00 +8°C° 2 mm 7 mps 742 mmHg 94%
    08:00 +8°C° 0.5 mm 7 mps 742 mmHg 90%
    09:00 +8°C° 0.5 mm 7 mps 743 mmHg 87%
    10:00 +8°C° 0 mm 7 mps 743 mmHg 83%
    11:00 +8°C° 0.2 mm 7 mps 743 mmHg 82%
    12:00 +8°C° 0.2 mm 7 mps 743 mmHg 82%
    13:00 +8°C° 0.2 mm 7 mps 743 mmHg 81%
    14:00 +6°C° 0.5 mm 7 mps 744 mmHg 84%
    15:00 +5°C° 0.5 mm 7 mps 745 mmHg 87%
    16:00 +5°C° 0.5 mm 6 mps 745 mmHg 90%
    17:00 +5°C° 1.7 mm 6 mps 746 mmHg 91%
    18:00 +6°C° 1.7 mm 5 mps 747 mmHg 92%
    19:00 +6°C° 1.7 mm 4 mps 748 mmHg 93%
    20:00 +6°C° 0.3 mm 5 mps 748 mmHg 91%
    21:00 +6°C° 0.3 mm 5 mps 749 mmHg 89%
    22:00 +5°C° 0.3 mm 6 mps 750 mmHg 87%
    23:00 +5°C° 0 mm 5 mps 750 mmHg 87%

    Tomorrow, 2 June, Tuesday

    Time Temperature Precipitation Wind Pressure Humidity
    00:00 +5°C° 0 mm 5 mps 750 mmHg 88%
    01:00 +3°C° 0 mm 5 mps 750 mmHg 88%
    02:00 +4°C° 0 mm 4 mps 751 mmHg 89%
    03:00 +3°C° 0 mm 4 mps 751 mmHg 90%
    04:00 +3°C° 0 mm 3 mps 751 mmHg 91%
    05:00 +3°C° 0 mm 3 mps 752 mmHg 92%
    06:00 +3°C° 0 mm 3 mps 752 mmHg 92%
    07:00 +2°C° 0 mm 3 mps 752 mmHg 93%
    08:00 +4°C° 0 mm 3 mps 753 mmHg 91%
    09:00 +6°C° 0 mm 2 mps 753 mmHg 88%
    10:00 +7°C° 0 mm 2 mps 753 mmHg 85%
    11:00 +8°C° 0 mm 2 mps 753 mmHg 84%
    12:00 +10°C° 0 mm 3 mps 753 mmHg 82%
    13:00 +11°C° 0 mm 3 mps 753 mmHg 81%
    14:00 +11°C° 0 mm 3 mps 753 mmHg 81%
    15:00 +13°C° 0 mm 2 mps 753 mmHg 81%
    16:00 +13°C° 0 mm 2 mps 753 mmHg 81%
    17:00 +12°C° 0 mm 2 mps 753 mmHg 82%
    18:00 +12°C° 0 mm 2 mps 754 mmHg 84%
    19:00 +10°C° 0 mm 2 mps 754 mmHg 86%
    20:00 +9°C° 0 mm 2 mps 754 mmHg 87%
    21:00 +9°C° 0 mm 3 mps 754 mmHg 88%
    22:00 +8°C° 0 mm 3 mps 755 mmHg 90%
    23:00 +8°C° 0 mm 3 mps 755 mmHg 90%

    Day after tomorrow, 3 June, Wednesday

    Time Temperature Precipitation Wind Pressure Humidity
    00:00 +8°C° 0 mm 3 mps 755 mmHg 91%
    01:00 +8°C° 0 mm 2 mps 755 mmHg 92%
    02:00 +8°C° 0 mm 3 mps 755 mmHg 92%
    03:00 +8°C° 0 mm 3 mps 755 mmHg 91%
    04:00 +8°C° 0 mm 3 mps 755 mmHg 91%
    05:00 +8°C° 0 mm 3 mps 756 mmHg 90%
    06:00 +8°C° 0 mm 3 mps 757 mmHg 88%
    07:00 +8°C° 0 mm 3 mps 757 mmHg 87%
    08:00 +8°C° 0 mm 4 mps 758 mmHg 82%
    09:00 +9°C° 0 mm 5 mps 758 mmHg 78%
    10:00 +10°C° 0 mm 6 mps 759 mmHg 73%
    11:00 +10°C° 0 mm 6 mps 758 mmHg 69%
    12:00 +11°C° 0 mm 6 mps 758 mmHg 66%
    13:00 +13°C° 0 mm 6 mps 758 mmHg 62%
    14:00 +11°C° 0 mm 6 mps 758 mmHg 63%
    15:00 +12°C° 0 mm 5 mps 759 mmHg 65%
    16:00 +12°C° 0 mm 5 mps 759 mmHg 66%
    17:00 +9°C° 0 mm 5 mps 759 mmHg 70%
    18:00 +8°C° 0 mm 4 mps 760 mmHg 75%
    19:00 +6°C° 0 mm 4 mps 760 mmHg 79%
    20:00 +5°C° 0 mm 4 mps 761 mmHg 81%
    21:00 +5°C° 0 mm 4 mps 761 mmHg 83%
    22:00 +4°C° 0 mm 3 mps 762 mmHg 85%
    23:00 +4°C° 0 mm 3 mps 762 mmHg 86%

    4 June, Thursday

    Time Temperature Precipitation Wind Pressure Humidity
    00:00 +5°C° 0 mm 2 mps 762 mmHg 87%
    01:00 +4°C° 0 mm 2 mps 762 mmHg 88%
    02:00 +4°C° 0 mm 2 mps 762 mmHg 87%
    03:00 +5°C° 0 mm 1 mps 762 mmHg 87%
    04:00 +4°C° 0 mm 1 mps 762 mmHg 86%
    05:00 +4°C° 0 mm 1 mps 762 mmHg 86%
    06:00 +4°C° 0 mm 1 mps 763 mmHg 85%
    07:00 +4°C° 0 mm 1 mps 763 mmHg 85%
    08:00 +6°C° 0 mm 1 mps 763 mmHg 79%
    09:00 +7°C° 0 mm 1 mps 763 mmHg 73%
    10:00 +9°C° 0 mm 1 mps 764 mmHg 67%
    11:00 +9°C° 0 mm 2 mps 763 mmHg 65%
    12:00 +10°C° 0 mm 2 mps 763 mmHg 63%
    13:00 +13°C° 0 mm 2 mps 762 mmHg 60%
    14:00 +13°C° 0 mm 1 mps 762 mmHg 63%
    15:00 +13°C° 0 mm 1 mps 762 mmHg 66%
    16:00 +12°C° 0 mm 0 mps 761 mmHg 69%
    17:00 +10°C° 0 mm 0 mps 762 mmHg 73%
    18:00 +9°C° 0 mm 1 mps 762 mmHg 78%
    19:00 +8°C° 0 mm 1 mps 762 mmHg 82%
    20:00 +7°C° 0 mm 1 mps 762 mmHg 83%
    21:00 +7°C° 0 mm 1 mps 762 mmHg 85%
    22:00 +7°C° 0 mm 1 mps 762 mmHg 86%
    23:00 +6°C° 0 mm 1 mps 762 mmHg 87%

    5 June, Friday

    Time Temperature Precipitation Wind Pressure Humidity
    00:00 +6°C° 0 mm 1 mps 762 mmHg 88%
    01:00 +6°C° 0 mm 1 mps 762 mmHg 88%
    02:00 +5°C° 0 mm 1 mps 761 mmHg 89%
    03:00 +5°C° 0 mm 1 mps 761 mmHg 90%
    04:00 +5°C° 0 mm 1 mps 760 mmHg 90%
    05:00 +4°C° 0 mm 1 mps 761 mmHg 90%
    06:00 +4°C° 0 mm 1 mps 761 mmHg 91%
    07:00 +4°C° 0 mm 1 mps 761 mmHg 91%
    08:00 +6°C° 0 mm 1 mps 761 mmHg 86%
    09:00 +7°C° 0 mm 1 mps 761 mmHg 81%
    10:00 +8°C° 0 mm 2 mps 761 mmHg 76%
    11:00 +9°C° 0 mm 2 mps 761 mmHg 73%
    12:00 +12°C° 0 mm 1 mps 760 mmHg 70%
    13:00 +13°C° 0 mm 1 mps 759 mmHg 67%
    14:00 +13°C° 0 mm 1 mps 759 mmHg 69%
    15:00 +13°C° 0 mm 1 mps 758 mmHg 71%
    16:00 +13°C° 0 mm 1 mps 758 mmHg 73%
    17:00 +11°C° 0 mm 1 mps 758 mmHg 77%
    18:00 +10°C° 0 mm 1 mps 758 mmHg 81%
    19:00 +8°C° 0 mm 1 mps 759 mmHg 86%
    20:00 +8°C° 0 mm 1 mps 758 mmHg 87%
    21:00 +7°C° 0 mm 1 mps 758 mmHg 88%
    22:00 +7°C° 0 mm 1 mps 758 mmHg 90%
    23:00 +7°C° 0 mm 1 mps 758 mmHg 90%

    6 June, Saturday

    Time Temperature Precipitation Wind Pressure Humidity
    00:00 +6°C° 0 mm 1 mps 758 mmHg 91%
    01:00 +6°C° 0 mm 1 mps 757 mmHg 91%
    02:00 +6°C° 0 mm 1 mps 757 mmHg 92%
    03:00 +6°C° 0 mm 1 mps 757 mmHg 92%
    04:00 +6°C° 0 mm 1 mps 757 mmHg 92%
    05:00 +6°C° 0 mm 1 mps 757 mmHg 92%
    06:00 +6°C° 0 mm 1 mps 757 mmHg 91%
    07:00 +6°C° 0 mm 1 mps 757 mmHg 90%
    08:00 +7°C° 0 mm 1 mps 757 mmHg 88%
    09:00 +8°C° 0 mm 1 mps 757 mmHg 86%
    10:00 +8°C° 0 mm 1 mps 757 mmHg 83%
    11:00 +9°C° 0 mm 1 mps 756 mmHg 81%
    12:00 +10°C° 0 mm 1 mps 756 mmHg 78%
    13:00 +11°C° 0 mm 1 mps 755 mmHg 75%
    14:00 +11°C° 0 mm 1 mps 755 mmHg 76%
    15:00 +11°C° 0 mm 1 mps 755 mmHg 76%
    16:00 +10°C° 0 mm 0 mps 755 mmHg 77%
    17:00 +9°C° 0 mm 0 mps 755 mmHg 80%
    18:00 +8°C° 0 mm 0 mps 755 mmHg 83%
    19:00 +7°C° 0 mm 0 mps 756 mmHg 85%
    20:00 +7°C° 0 mm 0 mps 756 mmHg 87%
    21:00 +7°C° 0 mm 1 mps 756 mmHg 89%
    22:00 +7°C° 0 mm 1 mps 756 mmHg 90%
    23:00 +6°C° 0 mm 1 mps 756 mmHg 91%
    Show more